Wind_Speed
3 2 2 2 1 0 0 1 1 1 0 1 1 2 2 2 3 3 3 4 4 4 5 5 6 6 6 5 5 5 6 7 6 7 7 7 8 8 8 9 9 10 10
3 3 3 3 3 2 2 2 2 2 2 2 2 3 3 4 5 5 5 6 6 6 7 7 7 7 7 7 7 7 7 8 8 8 8 8 9 10 11 11 11 12 12
4 4 4 4 5 5 5 5 4 4 4 5 5 5 5 6 6 5 6 7 7 8 8 8 9 9 9 9 9 9 9 9 9 9 9 9 10 11 12 13 13 13 13
4 5 5 6 6 6 7 6 6 6 6 6 6 6 7 7 7 7 7 8 8 8 9 10 10 10 10 10 10 10 10 11 11 11 11 11 12 13 14 14 15 15 15
5 6 7 7 6 7 6 7 7 7 7 7 8 8 9 9 9 8 8 9 9 9 9 10 11 11 11 10 10 11 11 12 13 13 13 13 14 15 16 17 17 17 17
6 7 7 8 8 8 8 7 8 8 9 9 10 10 10 10 10 10 10 10 10 10 11 11 11 11 11 11 10 11 12 13 13 14 14 14 15 17 18 18 18 19 19
7 7 8 8 8 9 9 9 10 10 11 11 11 12 13 12 12 11 11 12 12 12 12 12 12 11 10 10 11 12 13 13 14 15 16 16 17 18 19 19 19 19 20
8 8 9 9 10 10 11 11 12 12 12 13 13 13 13 14 14 13 12 13 13 14 14 13 13 11 11 12 12 12 13 14 15 15 16 17 18 18 19 19 19 19 20
10 10 11 12 12 12 12 13 14 14 14 14 15 15 14 15 15 15 14 14 14 14 14 14 13 13 12 13 13 14 14 15 16 17 18 18 18 19 19 19 19 19 20
11 12 13 13 13 14 14 14 15 15 15 15 16 16 15 15 16 16 15 15 14 14 14 14 14 14 14 15 15 16 16 18 19 19 19 20 20 20 20 20 20 20 21
13 14 14 14 14 15 16 17 17 16 16 16 16 16 16 15 15 15 16 16 16 16 15 15 16 16 17 17 18 19 19 20 20 20 20 21 21 21 21 22 22 22 22
15 15 16 16 17 17 18 18 18 18 17 17 17 17 17 17 17 16 16 17 17 17 17 17 17 18 18 19 20 21 22 22 22 22 23 23 23 23 24 24 24 24 24
16 17 17 17 17 18 19 19 19 19 19 18 17 17 18 18 18 18 18 19 18 18 18 18 19 19 20 21 22 23 24 23 23 24 25 25 24 25 25 25 26 26 25
18 18 19 18 19 19 20 20 20 20 20 20 20 20 19 19 20 20 20 20 19 19 20 21 21 22 22 23 24 25 25 25 25 25 26 27 27 27 27 27 27 27 27
20 20 20 20 21 21 21 21 22 21 21 21 22 22 21 21 21 21 21 21 21 21 22 23 24 25 26 27 27 28 28 27 27 27 27 27 28 29 29 29 28 28 28
21 21 21 22 22 23 23 23 23 23 22 22 22 22 22 23 23 23 23 23 23 24 24 25 26 27 28 29 30 30 30 29 29 29 29 30 29 29 29 30 30 30 29
22 22 23 24 24 24 24 24 24 25 24 24 24 24 24 25 25 25 25 25 26 27 27 28 28 29 30 31 32 32 31 30 31 31 31 31 30 29 29 30 31 31 31
25 25 25 25 26 27 26 26 26 26 26 25 26 25 26 26 27 27 27 27 28 28 29 30 30 31 32 32 33 32 32 32 32 32 32 32 32 30 30 31 32 32 32
27 27 26 27 27 27 27 27 28 28 28 28 27 28 28 28 28 28 28 29 30 30 31 31 32 32 33 33 33 33 33 33 33 34 34 34 33 32 32 32 32 32 33
28 28 27 27 27 28 29 29 30 31 31 30 30 30 30 30 30 30 30 31 32 32 32 33 33 33 34 34 34 34 34 33 34 34 35 34 33 33 33 33 33 33 33
29 29 29 29 29 30 30 31 31 32 32 32 32 32 32 32 32 32 33 33 34 34 34 35 35 35 35 35 35 34 35 34 34 34 34 33 33 33 33 33 33 33 33
31 31 31 31 30 30 31 31 32 33 32 32 33 33 34 34 34 33 34 34 35 36 36 36 35 35 35 35 35 35 35 35 34 34 33 32 32 32 32 32 32 33 33
31 31 31 31 31 31 31 32 32 34 34 34 33 34 34 34 34 34 35 36 37 37 37 37 37 36 36 35 35 34 34 34 34 34 33 32 31 31 31 31 31 31 31
32 31 31 30 30 31 32 32 32 33 33 34 34 34 35 35 35 35 36 37 38 39 38 37 37 36 36 35 36 35 34 34 34 33 33 32 32 32 32 32 31 31 31
32 32 32 32 32 32 32 32 32 32 32 33 33 34 35 36 36 37 37 38 39 38 38 37 37 37 36 35 35 35 34 34 33 34 34 34 33 33 33 33 32 32 32
32 32 32 32 32 32 32 32 32 32 32 32 33 35 35 36 37 37 37 37 37 37 38 37 36 36 35 35 35 35 34 34 34 34 33 34 34 34 33 33 33 32 32
Wind_Direction
330 335 340 344 344 337 356 312 284 255 306 272 273 283 290 296 293 295 297 293 286 286 292 299 306 304 301 301 300 294 292 291 298 290 280 280 283 284 285 287 288 291 292
304 301 309 320 312 289 276 276 281 271 281 285 287 297 298 301 302 294 299 292 288 289 291 292 297 300 302 301 297 294 290 289 292 292 287 284 287 287 284 284 285 285 285
284 286 296 299 303 305 295 271 270 273 280 285 288 293 298 296 297 292 299 301 290 289 291 288 291 295 296 297 297 293 291 289 289 291 291 286 285 288 285 282 282 284 283
283 284 295 300 299 297 298 294 281 277 278 282 288 291 294 295 295 297 297 298 298 292 289 291 292 289 288 291 293 292 288 287 288 288 289 287 284 283 283 286 284 282 285
277 285 293 296 294 293 295 297 290 284 283 284 287 291 293 290 290 293 293 293 292 293 294 299 297 293 285 286 291 293 288 287 285 285 286 286 286 285 284 287 286 284 285
282 282 289 291 291 291 291 294 295 287 285 286 288 291 292 290 287 289 293 297 296 293 293 296 299 298 291 288 291 295 293 286 285 285 285 284 286 286 289 289 287 287 286
293 288 288 290 291 292 289 288 290 291 290 290 289 289 288 289 290 288 291 293 295 295 293 295 295 299 297 293 291 293 293 291 291 289 288 288 290 289 290 289 289 289 288
296 292 291 291 292 293 289 288 289 288 288 288 290 293 291 287 287 285 288 290 292 294 292 294 296 296 297 296 295 296 297 298 297 294 292 291 291 292 293 291 290 291 290
295 296 293 292 293 293 291 288 287 288 286 286 290 290 290 288 286 285 285 289 291 294 294 291 289 292 297 298 297 296 295 298 298 295 293 292 293 293 293 292 291 291 291
293 293 291 292 291 291 293 293 287 287 288 289 292 292 290 288 286 283 282 285 290 291 291 288 285 287 290 293 294 294 293 293 295 293 292 292 292 291 291 291 291 290 291
287 289 286 287 288 290 293 294 288 284 285 288 290 289 291 292 292 288 285 288 290 293 294 292 289 287 289 291 291 294 292 292 292 291 291 291 291 290 290 290 289 289 290
280 282 284 282 284 290 293 290 286 284 284 285 287 287 288 290 290 290 291 294 294 292 291 290 291 289 290 292 292 294 294 292 291 289 289 291 291 289 289 289 288 289 289
279 279 280 281 284 287 289 287 283 283 285 286 286 286 287 287 286 288 290 293 293 292 291 290 289 289 289 291 292 293 295 293 292 289 290 291 290 289 289 288 288 288 287
277 277 278 280 282 284 285 286 284 284 285 286 286 285 285 286 286 287 288 290 291 290 289 289 288 288 288 289 290 290 293 293 293 293 291 290 289 289 289 287 286 286 285
277 276 278 278 279 281 282 284 284 284 281 283 284 284 283 284 284 284 285 288 289 288 287 288 287 287 288 288 289 290 291 291 291 292 292 291 291 289 287 285 284 284 284
275 276 276 277 278 280 281 282 282 283 281 281 281 283 284 284 283 282 282 285 288 288 288 288 287 288 289 289 288 290 290 289 290 290 291 291 291 290 289 287 285 284 284
272 274 277 278 280 281 280 280 280 281 283 281 281 282 284 283 282 282 282 285 287 288 288 288 288 289 290 291 289 289 289 288 288 290 290 290 290 289 288 287 287 284 282
273 274 276 278 279 280 280 278 278 279 280 280 282 283 284 284 283 284 285 286 288 288 289 289 289 289 289 289 289 286 287 287 287 287 288 289 290 288 287 286 286 285 283
274 275 276 276 277 278 280 278 277 277 278 279 279 281 283 283 283 284 285 286 287 287 288 288 289 288 288 287 287 287 287 287 286 287 288 289 287 286 287 286 285 285 282
272 273 274 275 276 276 278 278 277 277 276 276 277 279 280 282 283 285 286 286 285 286 286 287 287 288 288 288 287 287 288 287 287 288 289 287 286 286 286 285 284 284 282
272 272 274 275 276 276 276 276 277 276 275 275 276 279 281 282 283 284 285 285 286 286 287 286 287 289 289 289 288 286 286 287 287 288 288 288 286 285 284 284 283 282 281
272 272 273 274 274 276 276 275 275 274 274 274 276 278 281 282 284 285 285 285 286 287 288 288 288 289 288 288 287 286 286 286 288 289 288 289 288 287 286 285 284 282 281
271 272 272 273 273 274 274 275 275 274 273 274 277 280 282 282 282 283 283 284 285 286 287 287 288 288 286 287 286 286 286 287 288 288 289 289 289 288 288 288 286 285 284
271 272 272 272 273 273 274 275 275 275 274 274 277 279 280 281 282 283 284 285 285 285 286 287 287 286 286 285 285 285 286 287 288 288 289 289 288 288 288 288 288 286 285
272 272 272 273 273 272 274 274 275 275 275 276 277 278 278 280 282 284 285 285 285 287 288 287 285 284 284 285 286 285 285 287 288 288 289 288 287 287 288 287 287 286 285
271 271 272 272 273 274 274 275 278 278 279 279 279 279 279 281 282 283 285 286 287 288 287 286 286 285 284 284 285 286 286 286 287 287 289 289 287 287 287 288 287 286 286
Height
5915 5914 5913 5912 5912 5911 5911 5911 5910 5910 5909 5909 5908 5908 5907 5907 5906 5906 5905 5905 5904 5903 5903 5902 5902 5901 5900 5899 5899 5898 5898 5897 5897 5896 5896 5896 5895 5895 5895 5894 5894 5893 5892
5914 5914 5913 5913 5912 5912 5911 5910 5910 5909 5909 5908 5907 5907 5907 5906 5905 5905 5904 5903 5903 5902 5901 5901 5900 5899 5898 5897 5897 5896 5896 5895 5895 5895 5894 5894 5894 5893 5892 5892 5891 5890 5890
5914 5913 5913 5912 5912 5911 5910 5909 5909 5909 5908 5908 5907 5906 5906 5905 5904 5903 5902 5902 5901 5900 5900 5899 5898 5897 5896 5896 5895 5894 5894 5893 5892 5892 5892 5891 5891 5890 5889 5889 5888 5887 5886
5913 5913 5912 5911 5910 5910 5909 5908 5908 5907 5907 5906 5906 5905 5904 5903 5902 5901 5901 5900 5899 5898 5897 5897 5896 5895 5894 5893 5892 5892 5891 5891 5890 5889 5888 5888 5887 5887 5886 5885 5884 5884 5883
5912 5912 5911 5910 5910 5909 5908 5907 5906 5906 5905 5904 5904 5903 5902 5902 5901 5899 5899 5898 5897 5896 5895 5894 5893 5892 5891 5890 5890 5889 5888 5888 5887 5886 5885 5885 5884 5883 5883 5882 5880 5880 5879
5911 5910 5910 5909 5908 5907 5906 5905 5904 5904 5903 5902 5902 5901 5900 5899 5898 5897 5896 5895 5894 5894 5893 5892 5891 5889 5888 5887 5887 5886 5885 5884 5884 5883 5882 5881 5880 5879 5878 5877 5876 5875 5874
5909 5908 5908 5907 5906 5905 5904 5904 5903 5902 5901 5900 5899 5898 5897 5896 5895 5894 5894 5893 5892 5891 5890 5889 5888 5887 5885 5884 5884 5883 5882 5881 5880 5879 5878 5877 5876 5875 5874 5873 5872 5870 5869
5907 5906 5906 5905 5904 5903 5902 5901 5900 5899 5898 5897 5896 5895 5894 5893 5892 5891 5890 5890 5889 5888 5887 5886 5885 5884 5883 5882 5881 5880 5879 5877 5876 5875 5874 5873 5872 5870 5869 5868 5867 5866 5864
5905 5904 5903 5902 5901 5901 5900 5899 5897 5896 5895 5894 5893 5891 5891 5889 5888 5888 5887 5886 5885 5884 5883 5882 5882 5881 5880 5879 5878 5877 5875 5874 5872 5871 5870 5868 5867 5866 5864 5863 5862 5861 5859
5903 5901 5900 5899 5898 5897 5896 5895 5894 5893 5892 5891 5889 5888 5887 5886 5885 5884 5883 5882 5882 5881 5880 5879 5878 5877 5876 5875 5874 5872 5871 5869 5868 5866 5865 5864 5862 5861 5859 5858 5856 5855 5854
5899 5898 5897 5896 5895 5894 5893 5891 5890 5889 5888 5887 5886 5884 5883 5882 5881 5880 5879 5878 5877 5876 5875 5875 5874 5873 5872 5870 5869 5868 5866 5864 5863 5861 5860 5858 5857 5855 5854 5852 5851 5849 5847
5895 5894 5893 5892 5891 5890 5889 5887 5886 5885 5884 5883 5882 5880 5879 5878 5877 5876 5875 5874 5873 5872 5871 5870 5869 5867 5866 5865 5864 5862 5860 5858 5857 5855 5854 5852 5851 5849 5848 5846 5844 5843 5841
5891 5890 5889 5888 5887 5886 5884 5883 5882 5881 5880 5878 5878 5876 5875 5874 5873 5872 5871 5870 5868 5867 5866 5865 5863 5862 5861 5860 5858 5856 5854 5852 5851 5849 5847 5845 5844 5842 5841 5839 5838 5836 5834
5886 5885 5885 5884 5883 5881 5880 5878 5877 5876 5875 5874 5873 5872 5871 5870 5868 5867 5866 5865 5863 5862 5861 5859 5858 5856 5855 5853 5852 5850 5848 5846 5844 5842 5840 5838 5837 5835 5833 5832 5830 5829 5827
5881 5880 5879 5878 5877 5876 5875 5873 5872 5870 5870 5869 5868 5867 5865 5864 5863 5862 5861 5859 5858 5856 5855 5853 5852 5850 5849 5847 5845 5843 5841 5839 5837 5835 5833 5831 5829 5827 5826 5824 5822 5821 5819
5874 5874 5873 5872 5871 5870 5869 5868 5866 5865 5864 5863 5862 5860 5859 5858 5857 5856 5854 5853 5852 5850 5848 5847 5845 5843 5842 5840 5838 5836 5834 5831 5829 5827 5825 5823 5821 5819 5817 5816 5814 5813 5811
5868 5867 5866 5865 5864 5863 5862 5861 5860 5859 5857 5856 5855 5854 5852 5851 5850 5849 5848 5846 5845 5843 5841 5840 5838 5836 5834 5832 5830 5828 5826 5824 5822 5819 5817 5815 5813 5811 5809 5807 5806 5804 5802
5860 5860 5859 5859 5857 5856 5855 5854 5853 5852 5851 5849 5848 5847 5846 5844 5843 5841 5840 5839 5837 5836 5834 5832 5830 5828 5826 5824 5821 5819 5817 5815 5813 5811 5808 5806 5804 5802 5800 5798 5797 5795 5793
5853 5852 5851 5851 5850 5848 5847 5846 5845 5844 5843 5842 5841 5840 5838 5837 5835 5834 5832 5831 5829 5828 5826 5824 5821 5819 5817 5815 5812 5810 5808 5806 5804 5801 5799 5797 5795 5793 5791 5789 5787 5785 5783
5844 5844 5843 5842 5841 5840 5839 5838 5837 5836 5835 5834 5833 5832 5830 5829 5827 5826 5824 5822 5820 5819 5816 5814 5812 5810 5808 5806 5803 5801 5799 5796 5794 5792 5790 5787 5785 5783 5781 5779 5777 5775 5773
5835 5834 5834 5833 5833 5832 5830 5829 5828 5827 5826 5825 5824 5823 5822 5820 5818 5817 5815 5813 5811 5809 5807 5805 5802 5800 5798 5796 5794 5791 5789 5787 5784 5782 5780 5777 5775 5773 5771 5769 5767 5765 5763
5825 5825 5825 5824 5823 5823 5822 5821 5820 5818 5816 5815 5814 5813 5812 5810 5809 5807 5805 5803 5801 5799 5797 5795 5793 5791 5788 5786 5784 5782 5780 5777 5775 5772 5770 5767 5765 5763 5761 5759 5757 5755 5753
5816 5815 5815 5815 5814 5813 5812 5811 5810 5809 5807 5806 5805 5804 5802 5800 5799 5797 5795 5793 5791 5789 5787 5785 5783 5781 5778 5776 5774 5772 5769 5767 5765 5762 5760 5758 5755 5753 5751 5749 5747 5745 5743
5806 5806 5805 5805 5805 5804 5803 5802 5801 5799 5798 5797 5795 5794 5793 5791 5789 5788 5786 5783 5781 5778 5776 5775 5773 5770 5768 5766 5764 5761 5759 5757 5754 5752 5750 5747 5745 5743 5741 5739 5737 5735 5734
5796 5796 5796 5795 5794 5794 5793 5792 5790 5789 5788 5786 5785 5784 5782 5781 5780 5778 5775 5773 5770 5768 5766 5764 5762 5759 5757 5756 5754 5751 5749 5747 5745 5742 5740 5737 5735 5733 5731 5729 5727 5726 5724
5786 5785 5785 5785 5784 5783 5783 5782 5781 5779 5778 5777 5776 5774 5773 5771 5770 5767 5765 5762 5760 5757 5755 5753 5751 5749 5747 5745 5743 5741 5739 5737 5735 5732 5730 5727 5725 5723 5721 5719 5717 5716 5714